AMC-2 (GE-2) (24713 NORAD) Tracking and Keplerian Element Data

This shows tracking and keplerian element data for the satellite.

Feedback or suggestion? Click here.




ElementValue
Catalog24713
NameAMC-2 (GE-2)
Epoch Orbit8743
Epoch Day350.64065345
Epoch Year2020
RAAN59.3561
Inclination6.7144
Eccentricity6.61E-05
Argument of Perigee14.9113
Mean Anonmoly131.8085
Mean Motion0.99465793
Decay Rate2.6E-07
L11 24713U 97002A 20350.64065345 .00000026 00000-0 00000-0 0 9996
L22 24713 6.7144 59.3561 0000661 14.9113 131.8085 0.99465793 87432



Live tracking and technical data element details for AMC-2 (GE-2) (NORAD 24713). AMC-2 (GE-2) can be tracked NOW for your location showing map with azimuth and elevation plus other details from your city location.







IsCatalogInMostPopularTable: catalog: 24713, numindb: 307
Update: records affected: 1



GetName: 24713 AMC-2 (GE-2)

Hit Count: updated at: Sat, 17 May 2025 10:00:19 GMT